This demonstration page uses our WeatherBlox Daily Observations layout. Learn more.

Hourly Observations for November 14, 2019

Temp ( °F °C ) Dew Point ( °F °C ) Humidity (%) Winds ( mph kmh ) Pressure ( in mb ) Visibility ( mi km ) Precip ( " mm )
12:15 am 00:15 Clear 28 -2.1 26 -3.1 93 93 W 7 11 30.3 1026 10 16.09344 0 0
12:35 am 00:35 Mostly Cloudy 28 -2.1 27 -2.8 95 95 W 8 13 30.33 1027 10 16.09344 0 0
12:55 am 00:55 Cloudy 29 -1.6 28 -2.4 94 94 WNW 9 15 30.33 1027 10 16.09344 0 0
1:15 am 01:15 Cloudy 31 -0.5 29 -1.5 93 93 WNW 8 13 30.36 1028 10 16.09344 0 0
1:35 am 01:35 Cloudy 32 0 30 -1.1 92 92 WNW 6 9 30.33 1027 10 16.09344 0 0
1:55 am 01:55 Cloudy 32 0.1 30 -1 92 92 WNW 9 15 30.33 1027 10 16.09344 0 0
2:15 am 02:15 Cloudy 32 0.2 31 -0.8 93 93 NW 6 9 30.33 1027 10 16.09344 0 0
2:35 am 02:35 Cloudy 32 0.2 30 -1 92 92 NW 7 11 30.36 1028 10 16.09344 0 0
2:55 am 02:55 Cloudy 32 -0.2 29 -1.6 90 90 NW 8 13 30.39 1029 10 16.09344 0 0
3:15 am 03:15 Mostly Cloudy 30 -1.2 27 -2.7 90 90 WNW 8 13 30.39 1029 10 16.09344 0 0
3:35 am 03:35 Cloudy 31 -0.5 29 -1.5 93 93 W 6 9 30.39 1029 10 16.09344 0 0
3:55 am 03:55 Mostly Cloudy 30 -0.9 28 -2 92 92 WNW 6 9 30.39 1029 10 16.09344 0 0
4:15 am 04:15 Mostly Cloudy 29 -1.4 28 -2.4 93 93 WNW 7 11 30.39 1029 10 16.09344 0 0
4:35 am 04:35 Mostly Cloudy 29 -1.9 27 -2.8 94 94 WNW 6 9 30.39 1029 10 16.09344 0 0
4:55 am 04:55 Clear 27 -2.9 26 -3.5 96 96 WNW 9 15 30.39 1029 10 16.09344 0 0
5:15 am 05:15 Clear 27 -2.7 26 -3.5 94 94 WNW 7 11 30.39 1029 10 16.09344 0 0
5:35 am 05:35 Clear 24 -4.7 22 -5.3 96 96 NW 7 11 30.45 1031 10 16.09344 0 0
5:55 am 05:55 Clear 25 -4.1 24 -4.6 96 96 NNW 8 13 30.45 1031 10 16.09344 0 0
6:15 am 06:15 Clear 24 -4.6 23 -5.2 96 96 NW 6 9 30.45 1031 10 16.09344 0 0
6:35 am 06:35 Clear 22 -5.6 21 -6.2 96 96 WNW 3 6 30.48 1032 10 16.09344 0 0
6:55 am 06:55 Clear 23 -5.2 22 -5.6 97 97 WNW 6 9 30.45 1031 10 16.09344 0 0
7:15 am 07:15 Clear 22 -5.6 21 -6.1 96 96 WNW 6 9 30.48 1032 10 16.09344 0 0
7:35 am 07:35 Sunny 23 -4.9 22 -5.4 96 96 WNW 8 13 30.48 1032 10 16.09344 0 0
7:55 am 07:55 Sunny 24 -4.5 23 -5 96 96 NW 6 9 30.48 1032 10 16.09344 0 0
8:15 am 08:15 Sunny 26 -3.6 25 -4 97 97 WNW 6 9 30.48 1032 10 16.09344 0 0
8:35 am 08:35 Sunny 28 -2 27 -2.6 96 96 WNW 7 11 30.45 1031 10 16.09344 0 0
8:55 am 08:55 Sunny 31 -0.7 29 -1.8 92 92 WNW 8 13 30.45 1031 10 16.09344 0 0
9:15 am 09:15 Sunny 32 0.1 30 -1.1 92 92 WNW 8 13 30.45 1031 10 16.09344 0 0
9:35 am 09:35 Sunny 34 1.2 31 -0.6 88 88 WNW 10 17 30.42 1030 10 16.09344 0 0
9:55 am 09:55 Sunny 36 2.4 32 -0.1 84 84 WNW 9 15 30.42 1030 10 16.09344 0 0
10:15 am 10:15 Sunny 38 3.4 32 0 79 79 WNW 10 17 30.42 1030 10 16.09344 0 0
10:35 am 10:35 Sunny 40 4.3 32 0.2 75 75 W 9 15 30.42 1030 10 16.09344 0 0
10:55 am 10:55 Sunny 42 5.4 32 0.2 69 69 WNW 9 15 30.42 1030 10 16.09344 0 0
11:15 am 11:15 Sunny 44 6.5 33 0.3 65 65 WNW 7 11 30.42 1030 10 16.09344 0 0
11:35 am 11:35 Sunny 46 7.5 32 0.2 60 60 WNW 7 11 30.39 1029 10 16.09344 0 0
11:55 am 11:55 Sunny 47 8.3 32 -0.1 56 56 WNW 8 13 30.36 1028 10 16.09344 0 0
12:15 pm 12:15 Sunny 48 9 32 0 54 54 NW 9 15 30.36 1028 10 16.09344 0 0
12:35 pm 12:35 Sunny 49 9.6 32 0.1 52 52 WNW 7 11 30.36 1028 10 16.09344 0 0
12:55 pm 12:55 Sunny 49 9.5 32 0.1 52 52 WNW 8 13 30.3 1026 10 16.09344 0 0
1:15 pm 13:15 Sunny 50 9.8 32 0.1 51 51 WNW 3 6 30.3 1026 10 16.09344 0 0
1:35 pm 13:35 Sunny 52 11.1 33 0.5 48 48 W 7 11 30.3 1026 10 16.09344 0 0
1:55 pm 13:55 Sunny 52 11 33 0.4 48 48 WNW 3 6 30.27 1025 10 16.09344 0 0
2:15 pm 14:15 Sunny 53 11.6 33 0.8 48 48 WSW 9 15 30.27 1025 10 16.09344 0 0
2:35 pm 14:35 Sunny 53 11.9 34 0.9 47 47 WSW 8 13 30.27 1025 10 16.09344 0 0
2:55 pm 14:55 Sunny 53 11.7 34 0.9 48 48 W 7 11 30.27 1025 10 16.09344 0 0
3:15 pm 15:15 Sunny 54 12.2 34 0.9 46 46 W 9 15 30.27 1025 10 16.09344 0 0
3:35 pm 15:35 Sunny 54 12.1 34 0.9 47 47 WSW 5 7 30.27 1025 10 16.09344 0 0
3:55 pm 15:55 Sunny 54 12.3 34 1 46 46 WSW 6 9 30.24 1024 10 16.09344 0 0
4:15 pm 16:15 Sunny 54 12.4 34 0.9 46 46 W 9 15 30.24 1024 10 16.09344 0 0
4:35 pm 16:35 Sunny 54 12 34 1 47 47 WSW 5 7 30.27 1025 10 16.09344 0 0
4:55 pm 16:55 Sunny 52 10.9 33 0.5 49 49 WSW 3 6 30.27 1025 10 16.09344 0 0
5:15 pm 17:15 Sunny 50 9.8 32 0.2 52 52 SW 5 7 30.27 1025 10 16.09344 0 0
5:35 pm 17:35 Clear 46 7.7 32 -0.1 58 58 SSW 5 7 30.3 1026 10 16.09344 0 0
5:55 pm 17:55 Clear 44 6.6 31 -0.5 61 61 S 6 9 30.3 1026 10 16.09344 0 0
6:15 pm 18:15 Clear 44 6.7 32 -0.1 62 62 S 5 7 30.3 1026 10 16.09344 0 0
6:35 pm 18:35 Clear 42 5.7 31 -0.3 66 66 S 5 7 30.33 1027 10 16.09344 0 0
6:55 pm 18:55 Clear 41 5.2 32 -0.2 68 68 S 6 9 30.33 1027 10 16.09344 0 0
7:15 pm 19:15 Clear 39 3.8 30 -1 71 71 SSE 7 11 30.33 1027 10 16.09344 0 0
7:35 pm 19:35 Clear 37 2.8 30 -1.3 75 75 S 6 9 30.36 1028 10 16.09344 0 0
7:55 pm 19:55 Clear 37 2.8 30 -1.2 75 75 S 6 9 30.36 1028 10 16.09344 0 0
8:15 pm 20:15 Clear 37 2.7 30 -1.2 76 76 S 6 9 30.36 1028 10 16.09344 0 0
8:35 pm 20:35 Clear 37 2.8 30 -1.2 75 75 S 6 9 30.36 1028 10 16.09344 0 0
8:55 pm 20:55 Clear 37 2.6 30 -1.2 76 76 S 7 11 30.36 1028 10 16.09344 0 0
9:15 pm 21:15 Clear 38 3.3 30 -0.9 74 74 S 5 7 30.33 1027 10 16.09344 0 0
9:35 pm 21:35 Clear 36 2.3 30 -1.1 78 78 S 3 6 30.36 1028 10 16.09344 0 0
9:55 pm 21:55 Clear 36 2.4 29 -1.4 76 76 S 5 7 30.36 1028 10 16.09344 0 0
10:15 pm 22:15 Clear 35 1.8 29 -1.5 79 79 S 8 13 30.36 1028 10 16.09344 0 0
10:35 pm 22:35 Clear 37 2.9 31 -0.8 77 77 S 8 13 30.36 1028 10 16.09344 0 0
10:55 pm 22:55 Clear 37 2.7 30 -0.9 77 77 S 8 13 30.36 1028 10 16.09344 0 0
11:15 pm 23:15 Clear 37 2.7 30 -1 77 77 S 7 11 30.36 1028 10 16.09344 0 0
11:35 pm 23:35 Clear 36 2.3 30 -1 79 79 SSW 8 13 30.36 1028 10 16.09344 0 0
11:55 pm 23:55 Clear 40 4.5 31 -0.5 70 70 SSW 13 20 30.33 1027 10 16.09344 0 0

Powered by AerisWeather